| time (UTC) | temp C | wind direction | speed KPH | gust KPH | rain 1hr cm | rain 24hr cm | rain mn cm | humidity % | barometer mb |
| 20260509004340 | 10 | 15 | 6.4 | 9.7 | 0.00 | 0.00 | 0.00 | 85 | 1018.1 |
| 20260509003841 | 10 | 18 | 3.2 | 9.7 | 0.00 | 0.00 | 0.00 | 85 | 1018.1 |
| 20260509003340 | 10 | 15 | 6.4 | 8.0 | 0.00 | 0.00 | 0.00 | 85 | 1017.9 |
| 20260509002340 | 10 | 2 | 6.4 | 11.3 | 0.00 | 0.00 | 0.00 | 85 | 1018.4 |
| 20260509001840 | 10 | 32 | 0.0 | 11.3 | 0.00 | 0.00 | 0.00 | 85 | 1018.1 |
| 20260509001340 | 10 | 22 | 6.4 | 8.0 | 0.00 | 0.00 | 0.00 | 85 | 1018.2 |
| 20260509000840 | 10 | 60 | 3.2 | 11.3 | 0.00 | 0.00 | 0.00 | 85 | 1018.4 |
| 20260509000340 | 10 | 358 | 6.4 | 11.3 | 0.00 | 0.00 | 0.00 | 85 | 1018.3 |
| 20260508235840 | 10 | 305 | 0.0 | 8.0 | 0.00 | 0.00 | 0.00 | 84 | 1018.2 |
| 20260508234840 | 10 | 9 | 6.4 | 6.4 | 0.00 | 0.00 | 0.00 | 84 | 1018.5 |
| 20260508234340 | 10 | 42 | 3.2 | 9.7 | 0.00 | 0.00 | 0.00 | 84 | 1018.4 |
| 20260508233840 | 10 | 9 | 3.2 | 9.7 | 0.00 | 0.00 | 0.00 | 84 | 1018.2 |
| 20260508233340 | 11 | 348 | 8.0 | 11.3 | 0.00 | 0.00 | 0.00 | 84 | 1018.4 |
| 20260508232840 | 11 | 9 | 4.8 | 11.3 | 0.00 | 0.00 | 0.00 | 84 | 1018.4 |
| 20260508232340 | 11 | 8 | 3.2 | 9.7 | 0.00 | 0.00 | 0.00 | 83 | 1018.3 |
| 20260508231839 | 11 | 324 | 3.2 | 9.7 | 0.00 | 0.00 | 0.00 | 83 | 1018.5 |
| 20260508231340 | 11 | 21 | 8.0 | 9.7 | 0.00 | 0.00 | 0.00 | 83 | 1018.4 |
| 20260508230840 | 11 | 24 | 3.2 | 14.5 | 0.00 | 0.00 | 0.00 | 82 | 1018.6 |
| 20260508225839 | 11 | 355 | 3.2 | 8.0 | 0.00 | 0.00 | 0.00 | 82 | 1018.6 |
| 20260508225340 | 11 | 355 | 4.8 | 8.0 | 0.00 | 0.00 | 0.00 | 82 | 1018.5 |
| 20260508224841 | 11 | 356 | 4.8 | 8.0 | 0.00 | 0.00 | 0.00 | 82 | 1018.6 |
| 20260508224340 | 11 | 22 | 1.6 | 4.8 | 0.00 | 0.00 | 0.00 | 81 | 1018.2 |
| 20260508223840 | 11 | 65 | 0.0 | 4.8 | 0.00 | 0.00 | 0.00 | 81 | 1018.4 |
| 20260508223340 | 11 | 51 | 0.0 | 8.0 | 0.00 | 0.00 | 0.00 | 81 | 1018.4 |
| 20260508222840 | 11 | 55 | 0.0 | 9.7 | 0.00 | 0.00 | 0.00 | 81 | 1018.3 |
| 20260508221839 | 11 | 70 | 3.2 | 8.0 | 0.00 | 0.00 | 0.00 | 81 | 1018.4 |
| 20260508221340 | 12 | 22 | 6.4 | 11.3 | 0.00 | 0.00 | 0.00 | 81 | 1018.3 |
| 20260508220840 | 12 | 1 | 3.2 | 11.3 | 0.00 | 0.00 | 0.00 | 80 | 1018.3 |
| 20260508220340 | 12 | 13 | 1.6 | 9.7 | 0.00 | 0.00 | 0.00 | 80 | 1018.2 |
| 20260508215840 | 12 | 286 | 0.0 | 6.4 | 0.00 | 0.00 | 0.00 | 80 | 1018.1 |
| 20260508215340 | 12 | 199 | 1.6 | 6.4 | 0.00 | 0.00 | 0.00 | 79 | 1018.1 |
| 20260508214840 | 12 | 0 | 4.8 | 6.4 | 0.00 | 0.00 | 0.00 | 79 | 1018.4 |
| 20260508213840 | 12 | 17 | 0.0 | 6.4 | 0.00 | 0.00 | 0.00 | 79 | 1017.7 |
| 20260508212840 | 12 | 57 | 1.6 | 9.7 | 0.00 | 0.00 | 0.00 | 79 | 1017.6 |
| 20260508212340 | 12 | 306 | 0.0 | 9.7 | 0.00 | 0.00 | 0.00 | 79 | 1017.5 |
| 20260508211840 | 12 | 26 | 3.2 | 6.4 | 0.00 | 0.00 | 0.00 | 79 | 1017.5 |
| 20260508210840 | 12 | 10 | 1.6 | 4.8 | 0.00 | 0.00 | 0.00 | 78 | 1017.6 |
| 20260508210341 | 12 | 48 | 0.0 | 6.4 | 0.00 | 0.00 | 0.00 | 78 | 1017.7 |
| 20260508205341 | 13 | 40 | 4.8 | 8.0 | 0.00 | 0.00 | 0.00 | 77 | 1017.8 |
| 20260508204840 | 13 | 93 | 0.0 | 4.8 | 0.00 | 0.00 | 0.00 | 77 | 1017.9 |
| 20260508204340 | 13 | 113 | 0.0 | 6.4 | 0.00 | 0.00 | 0.00 | 76 | 1017.7 |
| 20260508203839 | 13 | 72 | 3.2 | 6.4 | 0.00 | 0.00 | 0.00 | 76 | 1017.6 |
| 20260508202840 | 13 | 30 | 4.8 | 4.8 | 0.00 | 0.00 | 0.00 | 75 | 1017.7 |
| 20260508202340 | 13 | 51 | 3.2 | 8.0 | 0.00 | 0.00 | 0.00 | 75 | 1017.4 |
| 20260508201840 | 13 | 72 | 3.2 | 9.7 | 0.00 | 0.00 | 0.00 | 75 | 1017.5 |
| 20260508201340 | 13 | 22 | 6.4 | 9.7 | 0.00 | 0.00 | 0.00 | 74 | 1017.3 |
| 20260508200853 | 13 | 46 | 3.2 | 8.0 | 0.00 | 0.00 | 0.00 | 74 | 1017.2 |
| 20260508200340 | 13 | 31 | 8.0 | 8.0 | 0.00 | 0.00 | 0.00 | 74 | 1017.2 |
| 20260508195840 | 13 | 31 | 1.6 | 6.4 | 0.00 | 0.00 | 0.00 | 73 | 1017.3 |
| 20260508195339 | 13 | 107 | 1.6 | 6.4 | 0.00 | 0.00 | 0.00 | 72 | 1017.3 |
| 20260508194839 | 13 | 100 | 0.0 | 8.0 | 0.00 | 0.00 | 0.00 | 72 | 1017.0 |
| 20260508194340 | 14 | 66 | 4.8 | 8.0 | 0.00 | 0.00 | 0.00 | 71 | 1017.1 |
| 20260508193840 | 14 | 27 | 3.2 | 8.0 | 0.00 | 0.00 | 0.00 | 70 | 1016.9 |
| 20260508193340 | 14 | 17 | 3.2 | 11.3 | 0.00 | 0.00 | 0.00 | 69 | 1016.8 |
| 20260508192840 | 15 | 111 | 3.2 | 11.3 | 0.00 | 0.00 | 0.00 | 68 | 1016.9 |
| 20260508192340 | 15 | 96 | 3.2 | 9.7 | 0.00 | 0.00 | 0.00 | 68 | 1016.8 |
| 20260508191840 | 15 | 61 | 3.2 | 9.7 | 0.00 | 0.00 | 0.00 | 67 | 1016.9 |
| 20260508191339 | 15 | 99 | 6.4 | 16.1 | 0.00 | 0.00 | 0.00 | 66 | 1016.7 |
| 20260508190840 | 15 | 33 | 4.8 | 16.1 | 0.00 | 0.00 | 0.00 | 65 | 1016.5 |
| 20260508190340 | 15 | 66 | 6.4 | 9.7 | 0.00 | 0.00 | 0.00 | 63 | 1016.3 |
| 20260508185840 | 15 | 148 | 3.2 | 8.0 | 0.00 | 0.00 | 0.00 | 62 | 1016.4 |
| 20260508185340 | 15 | 134 | 3.2 | 11.3 | 0.00 | 0.00 | 0.00 | 59 | 1016.4 |
| 20260508184340 | 15 | 0 | 6.4 | 11.3 | 0.00 | 0.00 | 0.00 | 57 | 1016.2 |
| 20260508182339 | 16 | 85 | 0.0 | 6.4 | 0.00 | 0.00 | 0.00 | 55 | 1015.9 |
| 20260508181840 | 16 | 58 | 1.6 | 6.4 | 0.00 | 0.00 | 0.00 | 54 | 1015.9 |
| 20260508181339 | 16 | 55 | 1.6 | 4.8 | 0.00 | 0.00 | 0.00 | 53 | 1015.7 |
| 20260508180840 | 17 | 89 | 0.0 | 8.0 | 0.00 | 0.00 | 0.00 | 52 | 1015.7 |
| 20260508180342 | 17 | 46 | 3.2 | 8.0 | 0.00 | 0.00 | 0.00 | 51 | 1015.8 |
| 20260508175839 | 17 | 349 | 4.8 | 8.0 | 0.00 | 0.00 | 0.00 | 51 | 1015.5 |
| 20260508175340 | 17 | 10 | 4.8 | 8.0 | 0.00 | 0.00 | 0.00 | 50 | 1015.6 |
| 20260508174840 | 17 | 52 | 6.4 | 6.4 | 0.00 | 0.00 | 0.00 | 50 | 1015.5 |
| 20260508174340 | 18 | 38 | 1.6 | 6.4 | 0.00 | 0.00 | 0.00 | 49 | 1015.5 |
| 20260508173839 | 18 | 45 | 1.6 | 6.4 | 0.00 | 0.00 | 0.00 | 48 | 1015.5 |
| 20260508173340 | 18 | 52 | 1.6 | 9.7 | 0.00 | 0.00 | 0.00 | 47 | 1015.6 |
| 20260508172840 | 18 | 27 | 3.2 | 9.7 | 0.00 | 0.00 | 0.00 | 47 | 1015.5 |
| 20260508172339 | 18 | 99 | 0.0 | 11.3 | 0.00 | 0.00 | 0.00 | 47 | 1015.3 |
| 20260508171840 | 18 | 81 | 6.4 | 11.3 | 0.00 | 0.00 | 0.00 | 46 | 1015.4 |
| 20260508171340 | 19 | 127 | 1.6 | 11.3 | 0.00 | 0.00 | 0.00 | 46 | 1015.1 |
| 20260508170339 | 19 | 55 | 4.8 | 9.7 | 0.00 | 0.00 | 0.00 | 45 | 1015.2 |
| 20260508165840 | 19 | 28 | 4.8 | 12.9 | 0.00 | 0.00 | 0.00 | 45 | 1015.2 |
| 20260508165340 | 20 | 150 | 3.2 | 14.5 | 0.00 | 0.00 | 0.00 | 44 | 1014.9 |
| 20260508164839 | 20 | 64 | 6.4 | 14.5 | 0.00 | 0.00 | 0.00 | 44 | 1015.1 |
| 20260508164339 | 20 | 119 | 3.2 | 17.7 | 0.00 | 0.00 | 0.00 | 44 | 1015.1 |
| 20260508163840 | 20 | 131 | 1.6 | 14.5 | 0.00 | 0.00 | 0.00 | 43 | 1015.1 |
| 20260508163339 | 20 | 120 | 6.4 | 14.5 | 0.00 | 0.00 | 0.00 | 44 | 1015.1 |
| 20260508162839 | 20 | 339 | 3.2 | 14.5 | 0.00 | 0.00 | 0.00 | 42 | 1015.2 |
| 20260508162340 | 20 | 122 | 9.7 | 12.9 | 0.00 | 0.00 | 0.00 | 44 | 1015.3 |
| 20260508161839 | 20 | 140 | 1.6 | 12.9 | 0.00 | 0.00 | 0.00 | 44 | 1015.3 |
| 20260508161340 | 20 | 96 | 8.0 | 12.9 | 0.00 | 0.00 | 0.00 | 45 | 1015.1 |
| 20260508160340 | 20 | 134 | 1.6 | 11.3 | 0.00 | 0.00 | 0.00 | 45 | 1015.2 |
| 20260508155839 | 20 | 177 | 3.2 | 11.3 | 0.00 | 0.00 | 0.00 | 44 | 1014.9 |
| 20260508155340 | 20 | 13 | 0.0 | 6.4 | 0.00 | 0.00 | 0.00 | 44 | 1015.1 |
| 20260508154840 | 20 | 96 | 4.8 | 8.0 | 0.00 | 0.00 | 0.00 | 43 | 1015.3 |
| 20260508154339 | 20 | 94 | 3.2 | 9.7 | 0.00 | 0.00 | 0.00 | 45 | 1015.1 |
| 20260508153840 | 20 | 96 | 4.8 | 9.7 | 0.00 | 0.00 | 0.00 | 44 | 1015.4 |
| 20260508152841 | 20 | 20 | 9.7 | 9.7 | 0.00 | 0.00 | 0.00 | 42 | 1015.0 |
| 20260508152339 | 20 | 224 | 3.2 | 6.4 | 0.00 | 0.00 | 0.00 | 41 | 1015.2 |
| 20260508151840 | 20 | 292 | 3.2 | 9.7 | 0.00 | 0.00 | 0.00 | 41 | 1015.0 |
| 20260508151340 | 20 | 354 | 1.6 | 9.7 | 0.00 | 0.00 | 0.00 | 41 | 1014.9 |
| 20260508150839 | 20 | 352 | 0.0 | 8.0 | 0.00 | 0.00 | 0.00 | 40 | 1015.2 |
| 20260508150353 | 21 | 60 | 0.0 | 14.5 | 0.00 | 0.00 | 0.00 | 40 | 1015.0 |
| 20260508145839 | 21 | 282 | 0.0 | 14.5 | 0.00 | 0.00 | 0.00 | 40 | 1015.2 |
| 20260508145340 | 21 | 268 | 4.8 | 12.9 | 0.00 | 0.00 | 0.00 | 39 | 1015.3 |
| 20260508144840 | 20 | 295 | 0.0 | 8.0 | 0.00 | 0.00 | 0.00 | 40 | 1015.1 |
| 20260508144340 | 20 | 34 | 0.0 | 11.3 | 0.00 | 0.00 | 0.00 | 41 | 1015.1 |
| 20260508143339 | 21 | 1 | 0.0 | 14.5 | 0.00 | 0.00 | 0.00 | 39 | 1015.3 |
| 20260508142340 | 21 | 6 | 6.4 | 9.7 | 0.00 | 0.00 | 0.00 | 39 | 1015.4 |
| 20260508141840 | 21 | 299 | 0.0 | 9.7 | 0.00 | 0.00 | 0.00 | 38 | 1015.3 |
| 20260508141340 | 22 | 296 | 3.2 | 9.7 | 0.00 | 0.00 | 0.00 | 37 | 1015.1 |
| 20260508140840 | 21 | 305 | 1.6 | 9.7 | 0.00 | 0.00 | 0.00 | 39 | 1015.6 |
| 20260508135840 | 21 | 243 | 1.6 | 8.0 | 0.00 | 0.00 | 0.00 | 39 | 1015.4 |
| 20260508135339 | 21 | 332 | 4.8 | 9.7 | 0.00 | 0.00 | 0.00 | 39 | 1015.5 |
| 20260508134842 | 21 | 64 | 4.8 | 9.7 | 0.00 | 0.00 | 0.00 | 39 | 1015.5 |
| 20260508134340 | 21 | 43 | 3.2 | 8.0 | 0.00 | 0.00 | 0.00 | 38 | 1015.5 |
| 20260508133840 | 22 | 111 | 4.8 | 8.0 | 0.00 | 0.00 | 0.00 | 36 | 1015.5 |
| 20260508133341 | 22 | 3 | 6.4 | 8.0 | 0.00 | 0.00 | 0.00 | 36 | 1015.7 |
| 20260508132839 | 22 | 212 | 3.2 | 12.9 | 0.00 | 0.00 | 0.00 | 37 | 1015.8 |
| 20260508132340 | 22 | 28 | 8.0 | 17.7 | 0.00 | 0.00 | 0.00 | 38 | 1015.8 |
| 20260508131340 | 23 | 278 | 0.0 | 8.0 | 0.00 | 0.00 | 0.00 | 34 | 1015.8 |
| 20260508130840 | 23 | 270 | 3.2 | 8.0 | 0.00 | 0.00 | 0.00 | 34 | 1015.6 |
| 20260508130340 | 23 | 260 | 3.2 | 8.0 | 0.00 | 0.00 | 0.00 | 36 | 1015.6 |
| 20260508125840 | 22 | 233 | 4.8 | 8.0 | 0.00 | 0.00 | 0.00 | 37 | 1016.0 |
| 20260508125340 | 22 | 321 | 3.2 | 8.0 | 0.00 | 0.00 | 0.00 | 39 | 1015.7 |
| 20260508124840 | 21 | 242 | 0.0 | 11.3 | 0.00 | 0.00 | 0.00 | 40 | 1015.9 |
| 20260508124340 | 21 | 282 | 3.2 | 16.1 | 0.00 | 0.00 | 0.00 | 41 | 1016.0 |
| 20260508123840 | 21 | 36 | 6.4 | 16.1 | 0.00 | 0.00 | 0.00 | 41 | 1016.0 |
| 20260508123339 | 23 | 302 | 3.2 | 8.0 | 0.00 | 0.00 | 0.00 | 38 | 1015.9 |
| 20260508122840 | 23 | 5 | 4.8 | 9.7 | 0.00 | 0.00 | 0.00 | 37 | 1015.9 |
| 20260508122340 | 23 | 353 | 4.8 | 9.7 | 0.00 | 0.00 | 0.00 | 38 | 1015.9 |
| 20260508121842 | 23 | 311 | 3.2 | 9.7 | 0.00 | 0.00 | 0.00 | 37 | 1015.7 |
| 20260508121339 | 21 | 0 | 3.2 | 9.7 | 0.00 | 0.00 | 0.00 | 40 | 1016.0 |
| 20260508120846 | 22 | 44 | 6.4 | 9.7 | 0.00 | 0.00 | 0.00 | 38 | 1016.0 |
| 20260508120340 | 23 | 273 | 0.0 | 9.7 | 0.00 | 0.00 | 0.00 | 38 | 1016.0 |
| 20260508115840 | 23 | 228 | 3.2 | 9.7 | 0.00 | 0.00 | 0.00 | 37 | 1016.3 |
| 20260508115339 | 22 | 248 | 1.6 | 6.4 | 0.00 | 0.00 | 0.00 | 39 | 1015.9 |
| 20260508114840 | 22 | 309 | 0.0 | 8.0 | 0.00 | 0.00 | 0.00 | 39 | 1016.5 |
| 20260508114340 | 22 | 3 | 4.8 | 9.7 | 0.00 | 0.00 | 0.00 | 39 | 1016.0 |
| 20260508113841 | 22 | 354 | 9.7 | 9.7 | 0.00 | 0.00 | 0.00 | 38 | 1016.2 |
| 20260508113340 | 22 | 127 | 3.2 | 8.0 | 0.00 | 0.00 | 0.00 | 39 | 1016.1 |
| 20260508112841 | 22 | 265 | 3.2 | 8.0 | 0.00 | 0.00 | 0.00 | 40 | 1016.1 |
| 20260508112340 | 21 | 229 | 6.4 | 8.0 | 0.00 | 0.00 | 0.00 | 40 | 1016.1 |
| 20260508111840 | 22 | 3 | 3.2 | 8.0 | 0.00 | 0.00 | 0.00 | 39 | 1016.3 |
| 20260508111340 | 22 | 4 | 3.2 | 8.0 | 0.00 | 0.00 | 0.00 | 38 | 1016.1 |
| 20260508110840 | 22 | 244 | 8.0 | 9.7 | 0.00 | 0.00 | 0.00 | 39 | 1016.3 |
| 20260508110340 | 21 | 136 | 3.2 | 9.7 | 0.00 | 0.00 | 0.00 | 41 | 1016.3 |
| 20260508105841 | 21 | 56 | 3.2 | 11.3 | 0.00 | 0.00 | 0.00 | 41 | 1016.3 |
| 20260508105339 | 21 | 355 | 4.8 | 11.3 | 0.00 | 0.00 | 0.00 | 42 | 1016.5 |
| 20260508104340 | 20 | 27 | 0.0 | 8.0 | 0.00 | 0.00 | 0.00 | 45 | 1016.5 |
| 20260508102839 | 19 | 237 | 3.2 | 8.0 | 0.00 | 0.00 | 0.00 | 46 | 1016.6 |
| 20260508101840 | 20 | 315 | 3.2 | 8.0 | 0.00 | 0.00 | 0.00 | 45 | 1016.7 |
| 20260508101340 | 20 | 0 | 1.6 | 4.8 | 0.00 | 0.00 | 0.00 | 45 | 1016.4 |
| 20260508100840 | 21 | 73 | 0.0 | 8.0 | 0.00 | 0.00 | 0.00 | 43 | 1016.5 |
| 20260508100340 | 21 | 255 | 1.6 | 8.0 | 0.00 | 0.00 | 0.00 | 43 | 1016.7 |
| 20260508094840 | 19 | 4 | 4.8 | 14.5 | 0.00 | 0.00 | 0.00 | 46 | 1016.5 |
| 20260508094340 | 18 | 17 | 6.4 | 14.5 | 0.00 | 0.00 | 0.00 | 47 | 1016.7 |
| 20260508093340 | 18 | 5 | 4.8 | 8.0 | 0.00 | 0.00 | 0.00 | 48 | 1016.6 |
| 20260508092839 | 18 | 311 | 3.2 | 9.7 | 0.00 | 0.00 | 0.00 | 49 | 1016.8 |
| 20260508092339 | 18 | 338 | 3.2 | 9.7 | 0.00 | 0.00 | 0.00 | 50 | 1017.0 |
| 20260508091840 | 18 | 337 | 4.8 | 8.0 | 0.00 | 0.00 | 0.00 | 49 | 1017.1 |
| 20260508091353 | 18 | 7 | 3.2 | 11.3 | 0.00 | 0.00 | 0.00 | 49 | 1017.1 |
| 20260508090842 | 18 | 59 | 3.2 | 11.3 | 0.00 | 0.00 | 0.00 | 48 | 1016.9 |
| 20260508090340 | 19 | 0 | 4.8 | 9.7 | 0.00 | 0.00 | 0.00 | 48 | 1017.0 |
| 20260508085839 | 20 | 122 | 1.6 | 9.7 | 0.00 | 0.00 | 0.00 | 46 | 1017.0 |
| 20260508085340 | 18 | 260 | 1.6 | 14.5 | 0.00 | 0.00 | 0.00 | 50 | 1016.9 |
| 20260508084840 | 18 | 260 | 1.6 | 14.5 | 0.00 | 0.00 | 0.00 | 50 | 1016.8 |
| 20260508084340 | 18 | 322 | 9.7 | 9.7 | 0.00 | 0.00 | 0.00 | 48 | 1016.7 |
| 20260508083840 | 18 | 355 | 4.8 | 9.7 | 0.00 | 0.00 | 0.00 | 48 | 1016.8 |
| 20260508083340 | 18 | 245 | 4.8 | 8.0 | 0.00 | 0.00 | 0.00 | 50 | 1016.8 |
| 20260508082340 | 18 | 358 | 12.9 | 14.5 | 0.00 | 0.00 | 0.00 | 50 | 1016.7 |
| 20260508081840 | 20 | 355 | 9.7 | 9.7 | 0.00 | 0.00 | 0.00 | 48 | 1016.7 |
| 20260508081340 | 19 | 269 | 0.0 | 9.7 | 0.00 | 0.00 | 0.00 | 49 | 1016.9 |
| 20260508080340 | 19 | 281 | 6.4 | 9.7 | 0.00 | 0.00 | 0.00 | 51 | 1016.9 |
| 20260508075340 | 18 | 345 | 4.8 | 8.0 | 0.00 | 0.00 | 0.00 | 52 | 1016.8 |
| 20260508074840 | 18 | 0 | 6.4 | 14.5 | 0.00 | 0.00 | 0.00 | 53 | 1016.8 |
| 20260508073839 | 18 | 184 | 0.0 | 12.9 | 0.00 | 0.00 | 0.00 | 53 | 1016.9 |
| 20260508073340 | 18 | 199 | 3.2 | 8.0 | 0.00 | 0.00 | 0.00 | 54 | 1016.7 |
| 20260508072840 | 18 | 293 | 1.6 | 4.8 | 0.00 | 0.00 | 0.00 | 54 | 1016.7 |
| 20260508072340 | 18 | 241 | 3.2 | 9.7 | 0.00 | 0.00 | 0.00 | 54 | 1016.7 |
| 20260508071340 | 17 | 15 | 9.7 | 12.9 | 0.00 | 0.00 | 0.00 | 56 | 1016.6 |
| 20260508070840 | 17 | 226 | 1.6 | 8.0 | 0.00 | 0.00 | 0.00 | 56 | 1016.8 |
| 20260508065840 | 17 | 324 | 3.2 | 4.8 | 0.00 | 0.00 | 0.00 | 57 | 1016.9 |
| 20260508065340 | 17 | 133 | 3.2 | 4.8 | 0.00 | 0.00 | 0.00 | 58 | 1016.8 |
| 20260508064839 | 16 | 280 | 0.0 | 6.4 | 0.00 | 0.00 | 0.00 | 60 | 1016.6 |
| 20260508064339 | 16 | 298 | 1.6 | 9.7 | 0.00 | 0.00 | 0.00 | 61 | 1016.8 |
| 20260508063839 | 15 | 258 | 4.8 | 9.7 | 0.00 | 0.00 | 0.00 | 64 | 1016.6 |
| 20260508063340 | 16 | 359 | 4.8 | 8.0 | 0.00 | 0.00 | 0.00 | 64 | 1016.8 |
| 20260508062840 | 16 | 61 | 0.0 | 8.0 | 0.00 | 0.00 | 0.00 | 65 | 1016.8 |
| 20260508062340 | 15 | 189 | 1.6 | 8.0 | 0.00 | 0.00 | 0.00 | 67 | 1016.6 |
| 20260508061839 | 15 | 110 | 0.0 | 8.0 | 0.00 | 0.00 | 0.00 | 69 | 1016.7 |
| 20260508061353 | 14 | 7 | 8.0 | 12.9 | 0.00 | 0.00 | 0.00 | 71 | 1016.4 |
| 20260508060340 | 14 | 351 | 1.6 | 12.9 | 0.00 | 0.00 | 0.00 | 71 | 1016.4 |
| 20260508055839 | 13 | 272 | 4.8 | 12.9 | 0.00 | 0.00 | 0.00 | 72 | 1016.4 |
| 20260508055340 | 13 | 5 | 6.4 | 12.9 | 0.00 | 0.00 | 0.00 | 73 | 1016.5 |
| 20260508054839 | 13 | 2 | 1.6 | 6.4 | 0.00 | 0.00 | 0.00 | 71 | 1016.5 |
| 20260508054340 | 13 | 4 | 1.6 | 6.4 | 0.00 | 0.00 | 0.00 | 71 | 1016.3 |
| 20260508053339 | 13 | 12 | 1.6 | 9.7 | 0.00 | 0.00 | 0.00 | 73 | 1016.4 |
| 20260508052840 | 13 | 14 | 8.0 | 9.7 | 0.00 | 0.00 | 0.00 | 73 | 1016.3 |
| 20260508052340 | 12 | 273 | 1.6 | 9.7 | 0.00 | 0.00 | 0.00 | 74 | 1016.4 |
| 20260508051839 | 12 | 4 | 3.2 | 9.7 | 0.00 | 0.00 | 0.00 | 74 | 1016.4 |
| 20260508051340 | 12 | 271 | 3.2 | 4.8 | 0.00 | 0.00 | 0.00 | 75 | 1016.5 |
| 20260508050340 | 12 | 37 | 3.2 | 9.7 | 0.00 | 0.00 | 0.00 | 76 | 1016.4 |
| 20260508045853 | 11 | 275 | 1.6 | 9.7 | 0.00 | 0.00 | 0.00 | 77 | 1016.4 |
| 20260508045342 | 11 | 47 | 0.0 | 6.4 | 0.00 | 0.00 | 0.00 | 77 | 1016.2 |
| 20260508044839 | 11 | 39 | 1.6 | 8.0 | 0.00 | 0.00 | 0.00 | 78 | 1016.1 |
| 20260508043840 | 10 | 21 | 4.8 | 8.0 | 0.00 | 0.00 | 0.00 | 80 | 1016.1 |
| 20260508043340 | 10 | 4 | 3.2 | 6.4 | 0.00 | 0.00 | 0.00 | 80 | 1016.1 |
| 20260508042839 | 10 | 8 | 3.2 | 8.0 | 0.00 | 0.00 | 0.00 | 80 | 1016.1 |
| 20260508042341 | 10 | 29 | 6.4 | 8.0 | 0.00 | 0.00 | 0.00 | 81 | 1016.3 |
| 20260508041840 | 10 | 338 | 3.2 | 6.4 | 0.00 | 0.00 | 0.00 | 82 | 1016.1 |
| 20260508041340 | 9 | 13 | 3.2 | 4.8 | 0.00 | 0.00 | 0.00 | 83 | 1016.2 |
| 20260508040840 | 9 | 13 | 3.2 | 8.0 | 0.00 | 0.00 | 0.00 | 84 | 1016.2 |
| 20260508040339 | 8 | 15 | 1.6 | 8.0 | 0.00 | 0.00 | 0.00 | 85 | 1016.1 |
| 20260508035839 | 8 | 113 | 3.2 | 6.4 | 0.00 | 0.00 | 0.00 | 85 | 1016.1 |
| 20260508035339 | 8 | 53 | 3.2 | 8.0 | 0.00 | 0.00 | 0.00 | 85 | 1015.9 |
| 20260508034840 | 8 | 42 | 0.0 | 8.0 | 0.00 | 0.00 | 0.00 | 85 | 1015.8 |
| 20260508034339 | 8 | 358 | 3.2 | 8.0 | 0.00 | 0.00 | 0.00 | 84 | 1016.0 |
| 20260508033840 | 8 | 9 | 3.2 | 8.0 | 0.00 | 0.00 | 0.00 | 84 | 1015.7 |
| 20260508033340 | 8 | 19 | 3.2 | 8.0 | 0.00 | 0.00 | 0.00 | 84 | 1015.8 |
| 20260508032840 | 8 | 18 | 1.6 | 8.0 | 0.00 | 0.00 | 0.00 | 84 | 1015.8 |
| 20260508032340 | 8 | 339 | 1.6 | 8.0 | 0.00 | 0.00 | 0.00 | 84 | 1015.9 |
| 20260508031839 | 9 | 9 | 1.6 | 6.4 | 0.00 | 0.00 | 0.00 | 84 | 1015.8 |
| 20260508031340 | 9 | 40 | 0.0 | 4.8 | 0.00 | 0.00 | 0.00 | 84 | 1015.9 |
| 20260508030840 | 9 | 358 | 3.2 | 4.8 | 0.00 | 0.00 | 0.00 | 84 | 1015.5 |
| 20260508030340 | 9 | 65 | 3.2 | 4.8 | 0.00 | 0.00 | 0.00 | 84 | 1015.9 |
| 20260508025839 | 9 | 20 | 4.8 | 6.4 | 0.00 | 0.00 | 0.00 | 84 | 1015.6 |
| 20260508025339 | 9 | 327 | 3.2 | 6.4 | 0.00 | 0.00 | 0.00 | 83 | 1015.7 |
| 20260508024840 | 9 | 338 | 1.6 | 6.4 | 0.00 | 0.00 | 0.00 | 83 | 1015.6 |
| 20260508024340 | 9 | 336 | 0.0 | 4.8 | 0.00 | 0.00 | 0.00 | 83 | 1015.4 |
| 20260508023840 | 9 | 0 | 3.2 | 4.8 | 0.00 | 0.00 | 0.00 | 83 | 1015.5 |
| 20260508023340 | 9 | 334 | 3.2 | 4.8 | 0.00 | 0.00 | 0.00 | 83 | 1015.4 |
| 20260508022840 | 9 | 20 | 0.0 | 4.8 | 0.00 | 0.00 | 0.00 | 83 | 1015.4 |
| 20260508022340 | 9 | 273 | 0.0 | 4.8 | 0.00 | 0.00 | 0.00 | 83 | 1015.5 |
| 20260508021340 | 9 | 26 | 1.6 | 4.8 | 0.00 | 0.00 | 0.00 | 82 | 1015.6 |
| 20260508020840 | 9 | 35 | 1.6 | 4.8 | 0.00 | 0.00 | 0.00 | 82 | 1015.6 |
| 20260508020340 | 9 | 41 | 3.2 | 4.8 | 0.00 | 0.00 | 0.00 | 83 | 1015.3 |
| 20260508015840 | 9 | 8 | 3.2 | 3.2 | 0.00 | 0.00 | 0.00 | 83 | 1015.4 |
| 20260508015340 | 9 | 86 | 1.6 | 3.2 | 0.00 | 0.00 | 0.00 | 83 | 1015.6 |
| 20260508014840 | 9 | 29 | 1.6 | 3.2 | 0.00 | 0.00 | 0.00 | 83 | 1015.4 |
| 20260508013840 | 8 | 7 | 0.0 | 3.2 | 0.00 | 0.00 | 0.00 | 82 | 1015.3 |
| 20260508013340 | 8 | 30 | 1.6 | 4.8 | 0.00 | 0.00 | 0.00 | 82 | 1015.4 |
| 20260508012340 | 9 | 11 | 3.2 | 6.4 | 0.00 | 0.00 | 0.00 | 80 | 1015.3 |
| 20260508011840 | 9 | 20 | 0.0 | 6.4 | 0.00 | 0.00 | 0.00 | 80 | 1015.5 |
| 20260508011339 | 10 | 4 | 1.6 | 6.4 | 0.00 | 0.00 | 0.00 | 79 | 1015.2 |
| 20260508010840 | 10 | 41 | 3.2 | 4.8 | 0.00 | 0.00 | 0.00 | 79 | 1015.3 |
| 20260508010340 | 10 | 11 | 3.2 | 4.8 | 0.00 | 0.00 | 0.00 | 79 | 1015.1 |
| 20260508005840 | 10 | 31 | 0.0 | 4.8 | 0.00 | 0.00 | 0.00 | 79 | 1015.2 |
| 20260508005340 | 10 | 356 | 1.6 | 4.8 | 0.00 | 0.00 | 0.00 | 79 | 1015.1 |
| 20260508004840 | 10 | 9 | 3.2 | 6.4 | 0.00 | 0.00 | 0.00 | 78 | 1015.1 |